Regional Weather Roundup
Issued by NWS

Home | Current Version | Previous Version | Graphics & Text | Print | Product List | Glossary On
Versions: 1 2 3 4 5 6 7 8 9 10 11 12 13 14 15 16 17 18 19 20 21 22 23 24 25 26 27 28 29 30 31 32 33 34 35 36 37 38 39 40 41 42 43 44 45 46 47 48 49 50
000
ASUS43 KFSD 202110
RWRSD

WEATHER ROUNDUP FOR SOUTH DAKOTA
NATIONAL WEATHER SERVICE SIOUX FALLS SD
400 PM CDT THU JUL 20 2017

NOTE: "FAIR" INDICATES FEW OR NO CLOUDS BELOW 12,000 FEET WITH NO
SIGNIFICANT WEATHER AND/OR OBSTRUCTIONS TO VISIBILITY.


SDZ001>005-009-010-012>017-202200-
NORTHWEST AND NORTH CENTRAL SOUTH DAKOTA

CITY           SKY/WX    TMP DP  RH WIND       PRES   REMARKS
BUFFALO          N/A     98  59  27 S23G30    29.83F HX  98
FAITH            N/A     98  59  27 S23G33    29.93F HX  98
MOBRIDGE       SUNNY     93  59  31 S21       29.91F
$$

SDZ012>016-024>037-041>051-057-063-072>074-202200-
SOUTHWEST AND SOUTH CENTRAL SOUTH DAKOTA

CITY           SKY/WX    TMP DP  RH WIND       PRES   REMARKS
RAPID CTY ARPT SUNNY     97  57  26 S18G26    29.97F HX  96
PIERRE         NOT AVBL
CUSTER         SUNNY     87  51  28 SE10G17   30.16F
ELLSWORTH AFB  SUNNY     96  58  27 S14G25    29.96F HX  95
PHILIP         MOSUNNY   97  61  30 SE10      29.93F HX  97
PINE RIDGE     SUNNY     92  62  36 S15       30.03F
SPEARFISH      LGT RAIN  97  50  20 W8        29.98F
WINNER         FAIR      98  64  32 SE16G23   29.97F HX 100
$$

SDZ004>011-016>023-039-040-202200-
NORTHEAST SOUTH DAKOTA

CITY           SKY/WX    TMP DP  RH WIND       PRES   REMARKS
ABERDEEN       SUNNY     88  65  46 S14       29.98F
WATERTOWN      SUNNY     85  64  49 S9        30.02F
BROOKINGS      MOSUNNY   88  66  48 SE15      30.02F
SISSETON         N/A     87  65  47 S13       29.99F
$$

SDZ017-020-022-023-036>040-048>070-202200-
SOUTHEAST SOUTH DAKOTA

CITY           SKY/WX    TMP DP  RH WIND       PRES   REMARKS
SIOUX FALLS    LGT RAIN  83  72  69 E13       30.00F
HURON          SUNNY     90  66  45 SE13      29.97F
CHAMBERLAIN    MOSUNNY   93  70  46 E10G17    29.97F HX  99
MITCHELL       MOSUNNY   90  73  57 SE10G22   29.98F HX  98
YANKTON        CLOUDY    85  74  69 E8        29.99F
$$

ABBREVIATIONS USED IN REMARKS
   TC - TEMPERATURE IN CELSIUS
  WCI - WIND CHILL INDEX
   HX - HEAT INDEX
  VSB - VISIBILITY





USA.gov is the U.S. government's official web portal to all federal, state and local government web resources and services.